Regional Weather Roundup
Issued by NWS Charleston, SC

Current Version | Previous Version | Text Only | Print | Product List | Glossary Off
Versions: 1 2 3 4 5 6 7 8 9 10 11 12 13 14 15 16 17 18 19 20 21 22 23 24 25 26 27 28 29 30 31 32 33 34 35 36 37 38 39 40 41 42 43 44 45 46 47 48 49 50

000
ASUS42 KCHS 072012
RWRCHS

REGIONAL WEATHER ROUNDUP
NATIONAL WEATHER SERVICE CHARLESTON SC
300 PM EST SUN FEB 07 2016

NOTE: "FAIR" INDICATES FEW OR NO CLOUDS BELOW 12,000 FEET WITH NO
SIGNIFICANT WEATHER AND/OR OBSTRUCTIONS TO VISIBILITY.

NOT ALL STATIONS ARE QUALITY CONTROLLED BY THE NATIONAL
WEATHER SERVICE. USE DATA WITH CAUTION...ESPECIALLY
DEWPOINT OBSERVATIONS.

NOTICE: OBSERVATIONS FOR THE SAVANNAH-HILTON HEAD INTERNATIONAL AIRPORT
/KSAV/ HAVE BEEN TEMPORARILY REMOVED DUE TO AN ERRONEOUS TEMPERATURE
SENSOR. THE OBSERVATION WILL BE REINTRODUCED ONCE REPAIRS ARE COMPLETE.

SCZ027-030-031-034>040-042>050-072100-
...SOUTHEAST SOUTH CAROLINA...

CITY           SKY/WX    TMP DP  RH WIND       PRES   REMARKS
N CHARLESTON   LGT RAIN  42  32  67 N20       29.90R
WATERFRONT PRK   N/A     42  35  76 NW10G22   29.71F
MOUNT PLEASANT MOCLDY    39  36  87 NW15G23   29.88R WCI  31
JOHNS ISLAND   LGT RAIN  41  36  81 NW15G21   29.90R
PINOPOLIS        N/A     45  32  61 N22       29.83F
MONCKS CORNER  CLOUDY    39  27  60 N13G18    29.92R WCI  32
SUMMERVILLE    MOCLDY    45  28  53 NW16G30   29.93S
BEAUFORT MCAS  CLOUDY    50  27  40 N22G35    29.94F
BEAUFORT ARPT  MOCLDY    46  30  53 NW16G25   29.93F
HILTON HEAD IS PTSUNNY   50  30  46 N17G35    29.94F
WALTERBORO     CLOUDY    48  30  49 NW13      29.95S
ALLENDALE      FAIR      54  27  35 N7G17     29.95F

...SOUTHERN MIDLANDS AND PEE DEE...

CITY           SKY/WX    TMP DP  RH WIND       PRES   REMARKS
GEORGETOWN     NOT AVBL
KINGSTREE      NOT AVBL
ORANGEBURG     CLOUDY    51  22  31 N13G23    29.95F
BARNWELL       FAIR      55  28  35 NW16G24   29.96F
AIKEN          FAIR      54  27  35 N14G23    30.00F
MANNING        FAIR      45  23  42 N16G24    29.92F
COLUMBIA       PTSUNNY   54  21  27 N10G21    29.96F
SUMTER         CLOUDY    48  23  36 N13G22    29.92F
FLORENCE       CLOUDY    38  33  82 NE15G23   29.94S WCI  29
MYRTLE BEACH   RAIN      37  28  70 N23G32    29.83F FOG     WCI  26
N MYRTLE BEACH RAIN      36  33  89 N16G30    29.79F FOG     WCI  26

$$

GAZ063-065-086>088-099>101-113>116-118-119-134>141-150-072100-
...SOUTHEAST GEORGIA...

CITY           SKY/WX    TMP DP  RH WIND       PRES   REMARKS
SAVANNAH ARPT  MOSUNNY   53  25  33 NW22G33   29.96F
HUNTER AAF     MOSUNNY   54  29  38 NW21G29   29.93F
FORT STEWART   SUNNY     55  29  36 N22G30    29.94F
STATESBORO     SUNNY     58  18  20 NW14G23   29.97F
SYLVANIA       CLEAR     56  32  39 NE10      29.97F
CLAXTON        FAIR      57  32  38 NW14      29.98F

...CSRA...CENTRAL AND FAR SOUTHEAST GEORGIA...

CITY           SKY/WX    TMP DP  RH WIND       PRES   REMARKS
THOMSON        SUNNY     58  30  33 N7        30.03F
AUGUSTA-BUSH   SUNNY     57  24  28 NW16G25   29.97F
AUGUSTA-DANIEL SUNNY     57  23  26 NW13      29.97F
SWAINSBORO     FAIR      55  27  33 NW12G18   29.99F
VIDALIA        SUNNY     59  28  31 N13       29.99S
EASTMAN        FAIR      58  24  27 N7        30.03F
HAZLEHURST     FAIR      58  25  28 NW10G20   29.98F
ALMA           SUNNY     56  24  29 NW14G22   29.99F
WAYCROSS       SUNNY     59  31  34 N12       29.99F
JESUP          FAIR      59  32  36 N14G22    29.98S
BAXLEY         FAIR      57  27  30 NW9G22    29.98F
BRUNSWICK      SUNNY     54  32  43 NW16G23   29.98R
SAINT SIMONS   SUNNY     55  31  39 N13G26    29.96S

$$

SCZ027-028-034-036>038-045-046-048>050-GAZ119-141-072100-
...LAKE AND SUPPLEMENTAL COASTAL OBSERVATIONS...

STATION/POSITION TIME  TEMP    WIND        PRES    WAVE   SWELL
                       AIR SEA DIR/SP/G            HT/PER HT/PER/DIR
                 (UTC) (F)     (DEG/KT/KT) (MB)    (FT/S) (FT/S/D)
WINYAH BAY       1845   37     330/ 16     1008.0
LAKE MURRAY      1900   51     360/  5/ 10 1015.2F
ACE BASIN NERRS  NOT AVBL
FORT PULASKI     1900   48 53  330/ 20/ 22 1014.4R
SAPELO ISLAND    1900   51     320/ 17     1015.0S

$$

ANZ835-935-AMZ111-154-330-350-352-354-370-450-454-472-072100-
...C-MAN AND BUOY OBSERVATIONS...

STATION/POSITION TIME  TEMP    WIND        PRES    WAVE   SWELL
                       AIR SEA DIR/SP/G            HT/PER HT/PER/DIR
                 (UTC) (F)     (DEG/KT/KT) (MB)    (FT/S) (FT/S/D)
BUOY 41004       1950   45 66  330/ 35/ 43 1006.3F  11/ 7   3/11
BUOY 41008       1950   49 55  330/ 23/ 27 1013.7F   6/ 5   2/ 70/ 9
FOLLY BEACH CMAN 2000   41     320/ 12/ 18 1012.0R
CAPERS NEARSHORE 1908   41     330/ 25/ 35 1009.0F
FRIPP NEARSHORE  1900   46     330/ 19/ 23 1012.9F


STATION/POSITION TIME  TEMP    WIND        PRES    WAVE   SWELL
                       AIR SEA DIR/SP/G            HT/PER HT/PER/DIR
                 (UTC) (F)     (DEG/KT/KT) (MB)    (FT/S) (FT/S/D)
5E ST. MARYS GA  1921      56                N/A     5/10   2/100/11
FRYING PAN BUOY  1900   45 67  330/ 35/ 49 1003.1F
BUOY 41025       1950   58 70   30/ 37/ 43  998.2F  15/10
CAPE LOOKOUT NC  NOT AVBL
BUOY 41002       1950   67 69  210/ 31/ 39   N/A    11/ 7   2/ 70/11
BUOY 41010       1920   61 74              1007.8F
ST AUGUSTINE FL  2000   52 57  310/ 17/ 19 1015.1F


$$



USA.gov is the U.S. government's official web portal to all federal, state and local government web resources and services.